Time,TemperatureF,DewpointF,PressureIn,WindDirection,WindDirectionDegrees,WindSpeedMPH,WindSpeedGustMPH,Humidity,HourlyPrecipIn,Conditions,Clouds,dailyrainin,SoftwareType,DateUTC
2013-04-08 00:05:00,47.2,27.5,30.14,SE,127,1.0,2.0,46,0.00,,,0.00,Wunderground v.1.15,2013-04-08 07:05:00,
2013-04-08 00:15:00,47.5,27.7,30.14,SSE,149,2.0,2.0,46,0.00,,,0.00,Wunderground v.1.15,2013-04-08 07:15:00,
2013-04-08 00:25:00,47.3,27.5,30.14,South,174,1.0,2.0,46,0.00,,,0.00,Wunderground v.1.15,2013-04-08 07:25:00,
2013-04-08 00:35:00,47.0,27.8,30.14,SSE,165,1.0,1.0,47,0.00,,,0.00,Wunderground v.1.15,2013-04-08 07:35:00,
2013-04-08 00:40:00,47.0,27.8,30.13,SE,141,1.0,1.0,47,0.00,,,0.00,Wunderground v.1.15,2013-04-08 07:40:00,
2013-04-08 00:50:00,46.2,27.6,30.14,SE,138,0.0,0.0,48,0.00,,,0.00,Wunderground v.1.15,2013-04-08 07:50:00,
2013-04-08 00:55:00,46.0,27.9,30.13,SSE,149,1.0,1.0,49,0.00,,,0.00,Wunderground v.1.15,2013-04-08 07:55:00,
2013-04-08 01:05:00,45.6,28.0,30.13,SE,135,0.0,1.0,50,0.00,,,0.00,Wunderground v.1.15,2013-04-08 08:05:00,
2013-04-08 01:10:00,45.5,27.9,30.13,SE,129,1.0,1.0,50,0.00,,,0.00,Wunderground v.1.15,2013-04-08 08:10:00,
2013-04-08 01:20:00,45.5,27.9,30.11,SSE,159,1.0,1.0,50,0.00,,,0.00,Wunderground v.1.15,2013-04-08 08:20:00,
2013-04-08 01:25:00,45.5,27.9,30.11,South,177,1.0,1.0,50,0.00,,,0.00,Wunderground v.1.15,2013-04-08 08:25:00,
2013-04-08 01:35:00,45.7,28.6,30.10,SSE,160,1.0,3.0,51,0.00,,,0.00,Wunderground v.1.15,2013-04-08 08:35:00,
2013-04-08 01:40:00,46.1,28.5,30.10,ESE,107,2.0,3.0,50,0.00,,,0.00,Wunderground v.1.15,2013-04-08 08:40:00,
2013-04-08 01:50:00,47.2,29.0,30.10,SE,125,3.0,3.0,49,0.00,,,0.00,Wunderground v.1.15,2013-04-08 08:50:00,
2013-04-08 01:55:00,47.6,29.4,30.09,SSE,161,2.0,3.0,49,0.00,,,0.00,Wunderground v.1.15,2013-04-08 08:55:00,
2013-04-08 02:00:00,48.1,29.3,30.09,SSW,196,3.0,3.0,48,0.00,,,0.00,Wunderground v.1.15,2013-04-08 09:00:00,
2013-04-08 02:10:00,48.8,29.4,30.08,SW,215,3.0,4.0,47,0.00,,,0.00,Wunderground v.1.15,2013-04-08 09:10:00,
2013-04-08 02:20:00,49.6,29.6,30.08,SSE,148,4.0,4.0,46,0.00,,,0.00,Wunderground v.1.15,2013-04-08 09:20:00,
2013-04-08 02:25:00,49.8,29.8,30.07,SSW,200,4.0,6.0,46,0.00,,,0.00,Wunderground v.1.15,2013-04-08 09:25:00,
2013-04-08 02:35:00,50.1,30.1,30.07,SSW,211,4.0,5.0,46,0.00,,,0.00,Wunderground v.1.15,2013-04-08 09:35:00,
2013-04-08 02:40:00,49.9,29.9,30.06,South,178,3.0,3.0,46,0.00,,,0.00,Wunderground v.1.15,2013-04-08 09:40:00,
2013-04-08 02:50:00,49.6,30.2,30.05,SSE,163,2.0,2.0,47,0.00,,,0.00,Wunderground v.1.15,2013-04-08 09:50:00,
2013-04-08 02:55:00,49.5,30.6,30.04,SSW,208,1.0,3.0,48,0.00,,,0.00,Wunderground v.1.15,2013-04-08 09:55:00,
2013-04-08 03:05:00,50.9,31.4,30.03,South,184,4.0,9.0,47,0.00,,,0.00,Wunderground v.1.15,2013-04-08 10:05:00,
2013-04-08 03:10:00,51.6,31.5,30.03,SSW,200,6.0,6.0,46,0.00,,,0.00,Wunderground v.1.15,2013-04-08 10:10:00,
2013-04-08 03:20:00,51.9,31.7,30.02,South,170,5.0,6.0,46,0.00,,,0.00,Wunderground v.1.15,2013-04-08 10:20:00,
2013-04-08 03:25:00,52.1,31.4,30.02,SSW,207,6.0,7.0,45,0.00,,,0.00,Wunderground v.1.15,2013-04-08 10:25:00,
2013-04-08 03:35:00,51.8,31.7,30.01,SSW,210,7.0,9.0,46,0.00,,,0.00,Wunderground v.1.15,2013-04-08 10:35:00,
2013-04-08 03:40:00,51.9,31.7,30.01,SE,141,7.0,7.0,46,0.00,,,0.00,Wunderground v.1.15,2013-04-08 10:40:00,
2013-04-08 03:50:00,51.9,31.7,30.00,SSW,197,7.0,7.0,46,0.00,,,0.00,Wunderground v.1.15,2013-04-08 10:50:00,
2013-04-08 03:55:00,51.9,32.3,30.00,SSW,198,8.0,8.0,47,0.00,,,0.00,Wunderground v.1.15,2013-04-08 10:55:00,
2013-04-08 04:05:00,52.1,32.5,30.00,South,179,7.0,8.0,47,0.00,,,0.00,Wunderground v.1.15,2013-04-08 11:05:00,
2013-04-08 04:10:00,52.2,32.6,29.99,SSW,201,7.0,8.0,47,0.00,,,0.00,Wunderground v.1.15,2013-04-08 11:10:00,
2013-04-08 04:20:00,52.4,32.7,29.99,SSW,207,8.0,8.0,47,0.00,,,0.00,Wunderground v.1.15,2013-04-08 11:20:00,
2013-04-08 04:25:00,52.2,32.6,29.98,SSW,200,8.0,8.0,47,0.00,,,0.00,Wunderground v.1.15,2013-04-08 11:25:00,
2013-04-08 04:35:00,51.8,33.2,29.97,SW,228,8.0,10.0,49,0.00,,,0.00,Wunderground v.1.15,2013-04-08 11:35:00,
2013-04-08 04:40:00,51.6,33.0,29.97,South,191,8.0,8.0,49,0.00,,,0.00,Wunderground v.1.15,2013-04-08 11:40:00,
2013-04-08 04:50:00,51.2,33.2,29.96,WSW,240,8.0,8.0,50,0.00,,,0.00,Wunderground v.1.15,2013-04-08 11:50:00,
2013-04-08 04:55:00,51.0,33.5,29.95,SSW,201,7.0,8.0,51,0.00,,,0.00,Wunderground v.1.15,2013-04-08 11:55:00,
2013-04-08 05:05:00,50.6,33.6,29.95,South,174,6.0,6.0,52,0.00,,,0.00,Wunderground v.1.15,2013-04-08 12:05:00,
2013-04-08 05:10:00,50.5,34.0,29.95,SSW,196,6.0,10.0,53,0.00,,,0.00,Wunderground v.1.15,2013-04-08 12:10:00,
2013-04-08 05:20:00,50.3,33.8,29.94,South,190,6.0,6.0,53,0.00,,,0.00,Wunderground v.1.15,2013-04-08 12:20:00,
2013-04-08 05:25:00,50.1,34.1,29.93,SSE,166,6.0,6.0,54,0.00,,,0.00,Wunderground v.1.15,2013-04-08 12:25:00,
2013-04-08 05:35:00,50.3,34.3,29.92,SW,234,6.0,9.0,54,0.00,,,0.00,Wunderground v.1.15,2013-04-08 12:35:00,
2013-04-08 05:41:00,50.5,34.5,29.92,South,174,5.0,8.0,54,0.00,,,0.00,Wunderground v.1.15,2013-04-08 12:41:00,
2013-04-08 05:50:00,50.7,34.6,29.92,SW,222,6.0,6.0,54,0.00,,,0.00,Wunderground v.1.15,2013-04-08 12:50:00,
2013-04-08 05:55:00,50.8,34.7,29.91,SSW,212,6.0,7.0,54,0.00,,,0.00,Wunderground v.1.15,2013-04-08 12:55:00,
2013-04-08 06:05:00,50.6,34.6,29.89,SW,218,6.0,6.0,54,0.00,,,0.00,Wunderground v.1.15,2013-04-08 13:05:00,
2013-04-08 06:10:00,50.4,34.8,29.88,South,187,7.0,7.0,55,0.00,,,0.00,Wunderground v.1.15,2013-04-08 13:10:00,
2013-04-08 06:20:00,49.9,34.4,29.87,SSE,167,7.0,7.0,55,0.00,,,0.00,Wunderground v.1.15,2013-04-08 13:20:00,
2013-04-08 06:25:00,49.7,34.6,29.86,SSW,211,8.0,8.0,56,0.00,,,0.00,Wunderground v.1.15,2013-04-08 13:25:00,
2013-04-08 06:35:00,49.3,34.7,29.87,South,190,9.0,9.0,57,0.00,,,0.00,Wunderground v.1.15,2013-04-08 13:35:00,
2013-04-08 06:40:00,49.3,34.7,29.87,South,173,9.0,9.0,57,0.00,,,0.00,Wunderground v.1.15,2013-04-08 13:40:00,
2013-04-08 06:50:00,49.3,35.1,29.87,SW,218,8.0,8.0,58,0.00,,,0.00,Wunderground v.1.15,2013-04-08 13:50:00,
2013-04-08 06:55:00,49.5,35.8,29.87,SSW,205,9.0,12.0,59,0.00,,,0.00,Wunderground v.1.15,2013-04-08 13:55:00,
2013-04-08 07:05:00,49.7,35.9,29.87,SSW,193,8.0,9.0,59,0.00,,,0.00,Wunderground v.1.15,2013-04-08 14:05:00,
2013-04-08 07:10:00,49.7,35.9,29.87,SE,138,8.0,8.0,59,0.00,,,0.00,Wunderground v.1.15,2013-04-08 14:10:00,
2013-04-08 07:20:00,49.9,36.1,29.87,SSW,203,10.0,10.0,59,0.00,,,0.00,Wunderground v.1.15,2013-04-08 14:20:00,
2013-04-08 07:25:00,49.9,36.1,29.87,SSW,207,10.0,10.0,59,0.00,,,0.00,Wunderground v.1.15,2013-04-08 14:25:00,
2013-04-08 07:35:00,49.9,35.7,29.86,SSW,210,9.0,13.0,58,0.00,,,0.00,Wunderground v.1.15,2013-04-08 14:35:00,
2013-04-08 07:40:00,49.9,35.7,29.86,South,174,10.0,10.0,58,0.00,,,0.00,Wunderground v.1.15,2013-04-08 14:40:00,
2013-04-08 07:50:00,49.7,35.5,29.85,SE,141,9.0,9.0,58,0.00,,,0.00,Wunderground v.1.15,2013-04-08 14:50:00,
2013-04-08 07:55:00,49.7,35.1,29.85,SSE,157,9.0,10.0,57,0.00,,,0.00,Wunderground v.1.15,2013-04-08 14:55:00,
2013-04-08 08:05:00,50.0,34.9,29.85,SSW,204,10.0,11.0,56,0.00,,,0.00,Wunderground v.1.15,2013-04-08 15:05:00,
2013-04-08 08:10:00,50.3,34.7,29.84,SW,222,10.0,11.0,55,0.00,,,0.00,Wunderground v.1.15,2013-04-08 15:10:00,
2013-04-08 08:20:00,50.9,34.4,29.83,South,191,10.0,16.0,53,0.00,,,0.00,Wunderground v.1.15,2013-04-08 15:20:00,
2013-04-08 08:25:00,51.1,34.1,29.82,WSW,245,10.0,16.0,52,0.00,,,0.00,Wunderground v.1.15,2013-04-08 15:25:00,
2013-04-08 08:35:00,51.7,34.6,29.82,WSW,245,11.0,15.0,52,0.00,,,0.00,Wunderground v.1.15,2013-04-08 15:35:00,
2013-04-08 08:40:00,52.4,34.8,29.81,South,188,11.0,11.0,51,0.00,,,0.00,Wunderground v.1.15,2013-04-08 15:40:00,
2013-04-08 08:50:00,53.1,35.9,29.80,SW,222,12.0,17.0,52,0.00,,,0.00,Wunderground v.1.15,2013-04-08 15:50:00,
2013-04-08 08:55:00,53.3,36.1,29.79,SSE,153,13.0,17.0,52,0.00,,,0.00,Wunderground v.1.15,2013-04-08 15:55:00,
2013-04-08 09:05:00,53.8,36.6,29.78,South,190,16.0,21.0,52,0.00,,,0.00,Wunderground v.1.15,2013-04-08 16:05:00,
2013-04-08 09:10:00,55.0,37.2,29.77,SSW,194,15.0,15.0,51,0.00,,,0.00,Wunderground v.1.15,2013-04-08 16:10:00,
2013-04-08 09:20:00,54.9,36.6,29.77,SW,226,16.0,16.0,50,0.00,,,0.00,Wunderground v.1.15,2013-04-08 16:20:00,
2013-04-08 09:25:00,54.2,35.9,29.78,WSW,249,15.0,16.0,50,0.00,,,0.00,Wunderground v.1.15,2013-04-08 16:25:00,
2013-04-08 09:35:00,54.3,36.0,29.77,West,276,15.0,15.0,50,0.00,,,0.00,Wunderground v.1.15,2013-04-08 16:35:00,
2013-04-08 09:40:00,54.7,34.3,29.77,NW,305,16.0,21.0,46,0.00,,,0.00,Wunderground v.1.15,2013-04-08 16:40:00,
2013-04-08 09:50:00,55.4,33.8,29.76,SW,234,15.0,16.0,44,0.00,,,0.00,Wunderground v.1.15,2013-04-08 16:50:00,
2013-04-08 09:55:00,55.0,32.3,29.76,SSW,204,12.0,19.0,42,0.00,,,0.00,Wunderground v.1.15,2013-04-08 16:55:00,
2013-04-08 10:00:00,54.4,32.9,29.75,WSW,245,15.0,15.0,44,0.00,,,0.00,Wunderground v.1.15,2013-04-08 17:00:00,
2013-04-08 10:11:00,54.1,34.3,29.75,WSW,239,13.0,15.0,47,0.00,,,0.00,Wunderground v.1.15,2013-04-08 17:11:00,
2013-04-08 10:20:00,55.6,34.6,29.74,South,188,13.0,13.0,45,0.00,,,0.00,Wunderground v.1.15,2013-04-08 17:20:00,
2013-04-08 10:25:00,55.0,35.1,29.74,West,260,15.0,18.0,47,0.00,,,0.00,Wunderground v.1.15,2013-04-08 17:25:00,
2013-04-08 10:35:00,54.0,33.1,29.73,SW,217,15.0,22.0,45,0.00,,,0.00,Wunderground v.1.15,2013-04-08 17:35:00,
2013-04-08 10:40:00,54.0,34.2,29.73,SW,221,15.0,18.0,47,0.00,,,0.00,Wunderground v.1.15,2013-04-08 17:40:00,
2013-04-08 10:46:00,53.2,35.0,29.73,SSW,212,14.0,18.0,50,0.00,,,0.00,Wunderground v.1.15,2013-04-08 17:46:00,
2013-04-08 10:55:00,52.3,35.2,29.73,SSE,166,12.0,16.0,52,0.00,,,0.00,Wunderground v.1.15,2013-04-08 17:55:00,
2013-04-08 11:05:00,52.4,31.7,29.73,South,190,14.0,24.0,45,0.00,,,0.00,Wunderground v.1.15,2013-04-08 18:05:00,
2013-04-08 11:10:00,52.0,31.8,29.74,SSW,212,15.0,15.0,46,0.00,,,0.00,Wunderground v.1.15,2013-04-08 18:10:00,
2013-04-08 11:20:00,49.9,35.3,29.74,WNW,289,13.0,13.0,57,0.00,,,0.00,Wunderground v.1.15,2013-04-08 18:20:00,
2013-04-08 11:25:00,48.9,34.8,29.75,West,268,11.0,13.0,58,0.00,,,0.00,Wunderground v.1.15,2013-04-08 18:25:00,
2013-04-08 11:35:00,47.6,37.2,29.74,West,272,10.0,12.0,67,0.00,,,0.00,Wunderground v.1.15,2013-04-08 18:35:00,
2013-04-08 11:40:00,48.3,35.9,29.74,WSW,242,8.0,12.0,62,0.00,,,0.00,Wunderground v.1.15,2013-04-08 18:40:00,
2013-04-08 11:51:00,47.5,36.3,29.76,WNW,290,14.0,16.0,65,0.00,,,0.00,Wunderground v.1.15,2013-04-08 18:51:00,
2013-04-08 12:00:00,41.0,36.5,29.79,WNW,291,13.0,16.0,84,0.00,,,0.01,Wunderground v.1.15,2013-04-08 19:00:00,
2013-04-08 12:05:00,39.5,36.0,29.79,WNW,290,14.0,16.0,87,0.08,,,0.02,Wunderground v.1.15,2013-04-08 19:05:00,
2013-04-08 12:10:00,39.2,36.2,29.79,WNW,288,13.0,14.0,89,0.10,,,0.03,Wunderground v.1.15,2013-04-08 19:10:00,
2013-04-08 12:20:00,39.6,36.6,29.78,WNW,287,10.0,14.0,89,0.09,,,0.04,Wunderground v.1.15,2013-04-08 19:20:00,
2013-04-08 12:25:00,40.2,36.6,29.78,WNW,301,10.0,14.0,87,0.05,,,0.04,Wunderground v.1.15,2013-04-08 19:25:00,
2013-04-08 12:35:00,42.1,37.3,29.78,West,262,9.0,11.0,83,0.00,,,0.04,Wunderground v.1.15,2013-04-08 19:35:00,
2013-04-08 12:40:00,42.6,36.2,29.78,SW,228,8.0,8.0,78,0.00,,,0.04,Wunderground v.1.15,2013-04-08 19:40:00,
2013-04-08 12:50:00,44.1,36.3,29.78,WNW,302,6.0,6.0,74,0.00,,,0.04,Wunderground v.1.15,2013-04-08 19:50:00,
2013-04-08 12:55:00,46.3,38.1,29.77,West,270,6.0,14.0,73,0.00,,,0.04,Wunderground v.1.15,2013-04-08 19:55:00,
2013-04-08 13:05:00,48.2,31.4,29.79,West,278,13.0,21.0,52,0.00,,,0.04,Wunderground v.1.15,2013-04-08 20:05:00,
2013-04-08 13:10:00,48.9,30.6,29.78,West,276,13.0,13.0,49,0.00,,,0.04,Wunderground v.1.15,2013-04-08 20:10:00,
2013-04-08 13:20:00,51.0,29.8,29.78,NW,322,12.0,18.0,44,0.00,,,0.04,Wunderground v.1.15,2013-04-08 20:20:00,
2013-04-08 13:30:00,52.0,27.1,29.78,WNW,286,12.0,24.0,38,0.00,,,0.04,Wunderground v.1.15,2013-04-08 20:30:00,
2013-04-08 13:35:00,52.3,24.7,29.79,WSW,252,12.0,27.0,34,0.00,,,0.04,Wunderground v.1.15,2013-04-08 20:35:00,
2013-04-08 13:41:00,51.8,24.3,29.80,WNW,283,15.0,15.0,34,0.00,,,0.04,Wunderground v.1.15,2013-04-08 20:41:00,
2013-04-08 13:50:00,52.4,23.4,29.81,NW,319,13.0,13.0,32,0.00,,,0.04,Wunderground v.1.15,2013-04-08 20:50:00,
2013-04-08 13:55:00,52.4,23.4,29.81,West,276,14.0,20.0,32,0.00,,,0.04,Wunderground v.1.15,2013-04-08 20:55:00,
2013-04-08 14:05:00,51.2,23.0,29.81,SW,226,14.0,16.0,33,0.00,,,0.04,Wunderground v.1.15,2013-04-08 21:05:00,
2013-04-08 14:10:00,50.6,21.8,29.81,West,270,13.0,17.0,32,0.00,,,0.04,Wunderground v.1.15,2013-04-08 21:10:00,
2013-04-08 14:20:00,50.1,22.8,29.82,NW,325,11.0,11.0,34,0.00,,,0.04,Wunderground v.1.15,2013-04-08 21:20:00,
2013-04-08 14:25:00,50.1,26.7,29.82,WSW,245,11.0,22.0,40,0.00,,,0.04,Wunderground v.1.15,2013-04-08 21:25:00,
2013-04-08 14:35:00,49.4,27.2,29.82,NW,323,13.0,14.0,42,0.00,,,0.04,Wunderground v.1.15,2013-04-08 21:35:00,
2013-04-08 14:40:00,49.1,27.0,29.83,WNW,293,13.0,13.0,42,0.00,,,0.04,Wunderground v.1.15,2013-04-08 21:40:00,
2013-04-08 14:50:00,48.8,27.8,29.83,WNW,282,12.0,15.0,44,0.00,,,0.04,Wunderground v.1.15,2013-04-08 21:50:00,
2013-04-08 14:55:00,49.2,28.2,29.83,WNW,285,11.0,15.0,44,0.00,,,0.04,Wunderground v.1.15,2013-04-08 21:55:00,
2013-04-08 15:05:00,49.3,28.3,29.83,WNW,297,7.0,9.0,44,0.00,,,0.04,Wunderground v.1.15,2013-04-08 22:05:00,
2013-04-08 15:10:00,49.8,27.0,29.83,NW,318,7.0,7.0,41,0.00,,,0.04,Wunderground v.1.15,2013-04-08 22:10:00,
2013-04-08 15:20:00,51.2,23.0,29.83,West,280,11.0,11.0,33,0.00,,,0.04,Wunderground v.1.15,2013-04-08 22:20:00,
2013-04-08 15:30:00,52.0,23.8,29.83,West,276,11.0,16.0,33,0.00,,,0.04,Wunderground v.1.15,2013-04-08 22:30:00,
2013-04-08 15:35:00,51.1,24.4,29.83,WNW,293,10.0,16.0,35,0.00,,,0.04,Wunderground v.1.15,2013-04-08 22:35:00,
2013-04-08 15:40:00,50.9,24.9,29.83,West,278,9.0,11.0,36,0.00,,,0.04,Wunderground v.1.15,2013-04-08 22:40:00,
2013-04-08 15:50:00,50.7,23.3,29.83,NW,309,9.0,9.0,34,0.00,,,0.04,Wunderground v.1.15,2013-04-08 22:50:00,
2013-04-08 15:55:00,50.8,22.7,29.83,WNW,299,10.0,14.0,33,0.00,,,0.04,Wunderground v.1.15,2013-04-08 22:55:00,
2013-04-08 16:05:00,52.2,22.4,29.83,NW,321,9.0,15.0,31,0.00,,,0.04,Wunderground v.1.15,2013-04-08 23:05:00,
2013-04-08 16:10:00,52.1,23.8,29.83,WNW,286,9.0,13.0,33,0.00,,,0.04,Wunderground v.1.15,2013-04-08 23:10:00,
2013-04-08 16:20:00,52.9,23.0,29.84,WSW,253,7.0,7.0,31,0.00,,,0.04,Wunderground v.1.15,2013-04-08 23:20:00,
2013-04-08 16:25:00,52.8,22.2,29.84,WNW,291,8.0,8.0,30,0.00,,,0.04,Wunderground v.1.15,2013-04-08 23:25:00,
2013-04-08 16:35:00,52.7,23.6,29.85,WNW,303,8.0,9.0,32,0.00,,,0.04,Wunderground v.1.15,2013-04-08 23:35:00,
2013-04-08 16:40:00,52.6,23.5,29.85,WNW,286,9.0,9.0,32,0.00,,,0.04,Wunderground v.1.15,2013-04-08 23:40:00,
2013-04-08 16:50:00,52.3,23.3,29.85,WNW,293,8.0,11.0,32,0.00,,,0.04,Wunderground v.1.15,2013-04-08 23:50:00,
2013-04-08 16:56:00,51.9,22.2,29.85,WNW,298,10.0,13.0,31,0.00,,,0.04,Wunderground v.1.15,2013-04-08 23:56:00,
2013-04-08 17:05:00,51.4,23.2,29.86,WNW,288,8.0,8.0,33,0.00,,,0.04,Wunderground v.1.15,2013-04-09 00:05:00,
2013-04-08 17:10:00,51.6,22.7,29.85,WNW,288,8.0,18.0,32,0.00,,,0.04,Wunderground v.1.15,2013-04-09 00:10:00,
2013-04-08 17:20:00,50.7,23.3,29.86,WNW,295,9.0,11.0,34,0.00,,,0.04,Wunderground v.1.15,2013-04-09 00:20:00,
2013-04-08 17:25:00,50.6,23.9,29.86,WNW,297,8.0,11.0,35,0.00,,,0.04,Wunderground v.1.15,2013-04-09 00:25:00,
2013-04-08 17:35:00,51.1,24.4,29.87,WNW,284,7.0,10.0,35,0.00,,,0.04,Wunderground v.1.15,2013-04-09 00:35:00,
2013-04-08 17:40:00,51.0,23.6,29.87,NW,308,7.0,8.0,34,0.00,,,0.04,Wunderground v.1.15,2013-04-09 00:40:00,
2013-04-08 17:50:00,50.8,24.8,29.87,WNW,295,7.0,7.0,36,0.00,,,0.04,Wunderground v.1.15,2013-04-09 00:50:00,
2013-04-08 17:55:00,50.2,23.6,29.87,NW,310,6.0,8.0,35,0.00,,,0.04,Wunderground v.1.15,2013-04-09 00:55:00,
2013-04-08 18:05:00,48.3,23.8,29.88,NW,305,8.0,13.0,38,0.00,,,0.04,Wunderground v.1.15,2013-04-09 01:05:00,
2013-04-08 18:10:00,47.6,23.8,29.88,NW,314,9.0,9.0,39,0.00,,,0.04,Wunderground v.1.15,2013-04-09 01:10:00,
2013-04-08 18:20:00,46.7,25.9,29.88,NW,310,10.0,10.0,44,0.00,,,0.04,Wunderground v.1.15,2013-04-09 01:20:00,
2013-04-08 18:25:00,45.9,28.8,29.89,WNW,289,11.0,11.0,51,0.00,,,0.04,Wunderground v.1.15,2013-04-09 01:25:00,
2013-04-08 18:35:00,44.6,28.5,29.89,WNW,287,8.0,10.0,53,0.00,,,0.04,Wunderground v.1.15,2013-04-09 01:35:00,
2013-04-08 18:40:00,44.4,28.8,29.90,WNW,293,6.0,6.0,54,0.00,,,0.04,Wunderground v.1.15,2013-04-09 01:40:00,
2013-04-08 18:50:00,44.0,28.0,29.90,WNW,297,4.0,4.0,53,0.00,,,0.04,Wunderground v.1.15,2013-04-09 01:50:00,
2013-04-08 18:55:00,43.7,27.7,29.91,West,278,5.0,5.0,53,0.00,,,0.04,Wunderground v.1.15,2013-04-09 01:55:00,
2013-04-08 19:05:00,43.1,28.0,29.91,WNW,298,4.0,6.0,55,0.00,,,0.04,Wunderground v.1.15,2013-04-09 02:05:00,
2013-04-08 19:10:00,42.7,27.6,29.91,WNW,297,5.0,5.0,55,0.00,,,0.04,Wunderground v.1.15,2013-04-09 02:10:00,
2013-04-08 19:20:00,42.2,28.0,29.92,NW,319,5.0,5.0,57,0.00,,,0.04,Wunderground v.1.15,2013-04-09 02:20:00,
2013-04-08 19:26:00,42.0,28.3,29.92,West,273,4.0,5.0,58,0.00,,,0.04,Wunderground v.1.15,2013-04-09 02:26:00,
2013-04-08 19:35:00,41.9,29.4,29.92,NW,314,8.0,11.0,61,0.00,,,0.04,Wunderground v.1.15,2013-04-09 02:35:00,
2013-04-08 19:40:00,41.5,30.2,29.92,West,277,9.0,9.0,64,0.00,,,0.04,Wunderground v.1.15,2013-04-09 02:40:00,
2013-04-08 19:50:00,40.6,30.9,29.93,NNW,327,7.0,7.0,68,0.00,,,0.04,Wunderground v.1.15,2013-04-09 02:50:00,
2013-04-08 19:56:00,40.2,31.2,29.93,WNW,287,6.0,7.0,70,0.00,,,0.04,Wunderground v.1.15,2013-04-09 02:56:00,
2013-04-08 20:05:00,39.5,31.6,29.93,WNW,293,4.0,6.0,73,0.00,,,0.04,Wunderground v.1.15,2013-04-09 03:05:00,
2013-04-08 20:15:00,39.1,31.5,29.93,NW,311,4.0,7.0,74,0.00,,,0.04,Wunderground v.1.15,2013-04-09 03:15:00,
2013-04-08 20:20:00,38.8,31.6,29.93,NW,315,4.0,4.0,75,0.00,,,0.04,Wunderground v.1.15,2013-04-09 03:20:00,
2013-04-08 20:25:00,38.6,31.7,29.92,WNW,301,4.0,4.0,76,0.00,,,0.04,Wunderground v.1.15,2013-04-09 03:25:00,
2013-04-08 20:35:00,38.1,31.5,29.92,NW,316,2.0,4.0,77,0.00,,,0.04,Wunderground v.1.15,2013-04-09 03:35:00,
2013-04-08 20:41:00,37.7,31.5,29.92,NW,308,2.0,2.0,78,0.00,,,0.04,Wunderground v.1.15,2013-04-09 03:41:00,
2013-04-08 20:50:00,37.2,31.6,29.91,NW,316,1.0,2.0,80,0.00,,,0.04,Wunderground v.1.15,2013-04-09 03:50:00,
2013-04-08 20:55:00,37.0,31.4,29.91,NNW,348,1.0,5.0,80,0.00,,,0.04,Wunderground v.1.15,2013-04-09 03:55:00,
2013-04-08 21:00:00,37.1,31.5,29.91,NW,316,3.0,3.0,80,0.00,,,0.04,Wunderground v.1.15,2013-04-09 04:00:00,
2013-04-08 21:05:00,37.2,31.6,29.92,NW,305,3.0,5.0,80,0.00,,,0.04,Wunderground v.1.15,2013-04-09 04:05:00,
2013-04-08 21:10:00,37.1,31.5,29.92,NNW,348,2.0,2.0,80,0.00,,,0.04,Wunderground v.1.15,2013-04-09 04:10:00,
2013-04-08 21:20:00,37.0,31.7,29.93,NW,314,2.0,2.0,81,0.00,,,0.04,Wunderground v.1.15,2013-04-09 04:20:00,
2013-04-08 21:25:00,37.0,31.7,29.94,WNW,285,2.0,2.0,81,0.00,,,0.04,Wunderground v.1.15,2013-04-09 04:25:00,
2013-04-08 21:35:00,36.9,31.9,29.94,WNW,302,0.0,1.0,82,0.00,,,0.04,Wunderground v.1.15,2013-04-09 04:35:00,
2013-04-08 21:40:00,36.8,31.8,29.94,NW,322,0.0,0.0,82,0.00,,,0.04,Wunderground v.1.15,2013-04-09 04:40:00,
2013-04-08 21:50:00,36.5,31.8,29.94,NNE,27,0.0,0.0,83,0.00,,,0.04,Wunderground v.1.15,2013-04-09 04:50:00,
2013-04-08 21:55:00,36.4,31.7,29.94,NNE,27,0.0,0.0,83,0.00,,,0.04,Wunderground v.1.15,2013-04-09 04:55:00,
2013-04-08 22:00:00,36.3,31.6,29.94,NNE,29,0.0,0.0,83,0.00,,,0.04,Wunderground v.1.15,2013-04-09 05:00:00,
2013-04-08 22:05:00,36.1,31.4,29.94,NNE,28,0.0,0.0,83,0.00,,,0.04,Wunderground v.1.15,2013-04-09 05:05:00,
2013-04-08 22:11:00,35.9,31.5,29.94,NNE,29,0.0,0.0,84,0.00,,,0.04,Wunderground v.1.15,2013-04-09 05:11:00,
2013-04-08 22:20:00,35.7,31.3,29.94,North,6,0.0,0.0,84,0.00,,,0.04,Wunderground v.1.15,2013-04-09 05:20:00,
2013-04-08 22:25:00,35.6,31.2,29.94,NNE,31,0.0,0.0,84,0.00,,,0.04,Wunderground v.1.15,2013-04-09 05:25:00,
2013-04-08 22:35:00,35.6,31.5,29.94,NNE,27,0.0,0.0,85,0.00,,,0.04,Wunderground v.1.15,2013-04-09 05:35:00,
2013-04-08 22:40:00,35.5,31.4,29.93,NNE,23,0.0,0.0,85,0.00,,,0.04,Wunderground v.1.15,2013-04-09 05:40:00,
2013-04-08 22:50:00,35.1,31.0,29.94,NNW,342,0.0,0.0,85,0.00,,,0.04,Wunderground v.1.15,2013-04-09 05:50:00,
2013-04-08 22:55:00,34.8,30.8,29.94,NNE,33,0.0,0.0,85,0.00,,,0.04,Wunderground v.1.15,2013-04-09 05:55:00,
2013-04-08 23:05:00,34.5,30.7,29.94,NW,318,0.0,0.0,86,0.00,,,0.04,Wunderground v.1.15,2013-04-09 06:05:00,
2013-04-08 23:10:00,34.3,30.5,29.94,North,359,0.0,0.0,86,0.00,,,0.04,Wunderground v.1.15,2013-04-09 06:10:00,
2013-04-08 23:20:00,34.4,30.6,29.94,NW,314,0.0,0.0,86,0.00,,,0.04,Wunderground v.1.15,2013-04-09 06:20:00,
2013-04-08 23:25:00,34.3,30.5,29.94,North,352,0.0,0.0,86,0.00,,,0.04,Wunderground v.1.15,2013-04-09 06:25:00,
2013-04-08 23:35:00,33.7,30.0,29.95,North,350,0.0,0.0,86,0.00,,,0.04,Wunderground v.1.15,2013-04-09 06:35:00,
2013-04-08 23:40:00,33.3,29.8,29.95,NNE,20,0.0,0.0,87,0.00,,,0.04,Wunderground v.1.15,2013-04-09 06:40:00,
2013-04-08 23:50:00,33.4,30.2,29.96,NE,37,0.0,0.0,88,0.00,,,0.04,Wunderground v.1.15,2013-04-09 06:50:00,
2013-04-08 23:55:00,33.8,30.3,29.96,ENE,57,0.0,0.0,87,0.00,,,0.04,Wunderground v.1.15,2013-04-09 06:55:00,